#timestamp,LO_Frequency,Hit,StdDev 
1524448815.3,286046998.3,N
1524448835.2,286046998.7,N
1524448855.0,286047011.9,Y
1524448855.9,286046999.2,P
1524448875.7,286046998.9,P
1524448895.6,286047000.8,P
1524448915.4,286046998.2,N
1524448935.3,286047000.4,N
1524448955.1,286047001.9,N
1524448975.8,286047002.2,N
1524448995.7,286047002.2,N
1524449015.5,286047002.0,N
1524449035.3,286047002.1,N
1524449055.2,286047001.5,N
1524449075.0,286047002.5,N
1524449075.9,286047002.5,N
1524449095.8,286047002.4,N
1524449115.6,286047002.6,N
1524449135.4,286047001.6,N
1524449155.3,286047001.3,N
1524449175.1,286047002.0,N
1524449195.9,286047002.6,N
1524449215.7,286047000.1,N
1524449235.5,286046999.9,N
1524449255.4,286047000.8,N
1524449275.2,286047000.6,N
1524449295.0,286047000.3,N
1524449295.9,286047000.3,N
1524449315.8,286046998.9,N
1524449335.6,286046999.6,N
1524449355.5,286046999.5,N
1524449375.3,286046999.0,N
1524449395.1,286047001.1,N
1524449415.9,286047000.2,N
1524449435.7,286047000.3,N
1524449455.5,286046998.1,N
1524449475.4,286046998.3,N
1524449495.2,286047000.6,N
1524449515.1,286047000.5,N
1524449516.0,286047000.5,N
1524449535.8,286046998.2,N
1524449555.6,286046999.9,N
1524449575.5,286047002.4,N
1524449595.3,286047001.6,N
1524449615.1,286047002.0,N
1524449635.9,286047002.7,N
1524449655.7,286047002.5,N
1524449675.6,286047002.2,N
1524449695.4,286047000.0,N
1524449715.2,286046998.7,N
1524449735.1,286047000.3,N
1524449736.0,286047000.3,N
1524449755.8,286047002.8,N
1524449775.6,286046999.9,N
1524449795.5,286047000.0,N
1524449815.3,286047000.8,N
1524449835.2,286047000.9,N
1524449855.9,286046998.8,N
1524449875.7,286046999.0,N
1524449895.6,286046998.7,N
1524449915.4,286047000.0,N
1524449935.2,286047001.2,N
1524449955.1,286047000.5,N
1524449956.0,286047000.5,N
1524449975.8,286047000.3,N
1524449995.7,286046999.8,N
1524450015.5,286047000.3,N
1524450035.3,286047000.4,N
1524450055.2,286047000.5,N
1524450075.0,286047000.9,N
1524450075.9,286047000.9,N
1524450095.8,286046998.8,N
1524450115.6,286046999.5,N
1524450135.4,286046996.5,Y
1524450155.3,286046996.8,P
1524450175.1,286046997.8,N
1524450195.8,286046997.9,N
1524450215.7,286046995.0,Y
1524450235.5,286046998.2,P
1524450255.4,286047002.6,P
1524450275.2,286047001.9,N
1524450295.0,286047001.4,N
1524450295.9,286047001.4,N
1524450315.8,286047004.1,N
1524450335.6,286047003.3,N
1524450355.5,286047004.4,N
1524450375.3,286047004.1,N
1524450395.1,286047003.9,N
1524450415.9,286047003.2,N
1524450435.7,286047001.4,N
1524450455.5,286047004.0,N
1524450475.4,286047001.3,N
1524450495.2,286047003.2,N
1524450515.1,286047004.1,N
1524450516.0,286047004.1,N
1524450535.8,286047001.6,N
1524450555.6,286047004.3,N
1524450575.5,286047002.6,N
1524450595.3,286047001.5,N
1524450615.1,286047002.7,N
1524450635.9,286047002.8,N
1524450655.7,286046999.8,N
1524450675.6,286047001.8,N
1524450695.4,286047002.0,N
1524450715.2,286047002.6,N
1524450735.1,286047001.6,N
1524450736.0,286047001.6,N
1524450755.8,286047004.3,N
1524450775.6,286047004.4,Y
1524450795.5,286047001.1,P
1524450815.3,286047000.9,N
1524450835.2,286047001.0,N
1524450855.9,286046999.4,N
1524450875.7,286046999.5,N
1524450895.6,286046997.3,N
1524450915.4,286046997.8,N
1524450935.2,286046995.7,N
1524450955.1,286046996.2,N
1524450956.0,286046996.2,N
1524450975.8,286046993.9,N
1524450995.7,286046994.6,N
1524451015.5,286046993.3,N
1524451035.3,286046996.0,N
1524451055.2,286046993.8,N
1524451075.0,286046994.6,N
1524451075.9,286046994.6,N
1524451095.8,286046994.4,N
1524451115.6,286046992.4,N
1524451135.4,286046993.2,N
1524451155.3,286046990.5,Y
1524451175.1,286046993.7,P
1524451195.8,286046995.8,N
1524451215.7,286046994.2,P
1524451235.5,286046994.6,Y
1524451255.4,286046998.1,P
1524451275.2,286046998.5,N
1524451295.0,286046998.1,N
1524451295.9,286046998.1,N
1524451315.8,286046998.9,N
1524451335.6,286047000.7,N
1524451355.5,286046998.9,N
1524451375.3,286046998.4,N
1524451395.1,286046998.7,N
1524451415.9,286046999.5,N
1524451435.7,286046999.0,N
1524451455.5,286046999.5,N
1524451475.4,286046997.8,N
1524451495.2,286046997.9,N
1524451515.1,286046995.2,Y
1524451516.0,286046995.2,P
1524451535.8,286046997.9,N
1524451555.6,286046995.0,P
1524451575.5,286046994.9,Y
1524451595.3,286047011.9,P
1524451615.1,286047000.4,N
1524451635.9,286046999.8,N
1524451655.7,286047001.1,N
1524451675.6,286046998.5,N
1524451695.4,286047001.1,N
1524451715.2,286047000.8,N
1524451735.1,286047000.3,N
1524451736.0,286047000.3,N
1524451755.8,286046998.3,N
1524451775.7,286046998.9,N
1524451795.5,286046998.9,N
1524451815.3,286046999.2,N
1524451835.2,286046997.1,N
1524451855.0,286046998.9,N
1524451855.9,286046998.9,N
1524451875.7,286046997.1,N
1524451895.6,286046997.4,N
1524451915.4,286046996.7,N
1524451935.3,286046999.4,N
1524451955.1,286046998.5,N
1524451975.8,286047001.1,N
1524451995.7,286046999.6,N
1524452015.5,286046999.5,N
1524452035.4,286046999.2,N
1524452055.2,286046997.2,N
1524452075.0,286046996.5,N
1524452075.9,286046996.5,N
1524452095.8,286047001.1,N
1524452115.6,286046999.9,N
1524452135.4,286047001.0,N
1524452155.3,286047000.5,N
1524452175.1,286046998.5,N
1524452195.9,286046996.6,N
1524452215.7,286046998.9,N
1524452235.5,286047000.5,N
1524452255.4,286047001.2,N
1524452275.2,286046999.1,N
1524452295.0,286046998.3,N
1524452295.9,286046998.3,N
1524452315.8,286047001.1,N
1524452335.6,286046999.2,N
1524452355.5,286046998.5,N
1524452375.3,286046999.4,N
1524452395.1,286047001.1,N
